SBONWEB Weather Reports


Display with metric or nautical units.
time (UTC)temp
F
wind
direction
speed
MPH
gust
MPH
rain 1hr
in
rain 24hr
in
rain mn
in
humidity
%
barometer
mb
20260505210903 54 100 0.0 4.0 0.04 0.90 0.90 97 1012.9
20260505210218 54 145 0.0 2.0 0.04 0.90 0.90 97 1013.0
20260505205403 54 140 0.0 2.0 0.03 0.89 0.89 97 1013.0
20260505204503 54 130 0.0 1.0 0.02 0.88 0.88 97 1013.0
20260505203603 54 133 1.0 1.0 0.02 0.87 0.87 97 1013.1
20260505202703 54 127 3.0 3.0 0.01 0.86 0.86 97 1013.1
20260505202017 54 115 4.0 7.0 0.02 0.86 0.86 97 1013.2
20260505201116 54 111 2.0 8.0 0.03 0.86 0.86 97 1013.2
20260505200003 54 136 1.0 4.0 0.05 0.86 0.86 97 1013.1
20260505195403 53 144 1.0 4.0 0.09 0.86 0.86 97 1013.1
20260505194503 53 214 1.0 2.0 0.12 0.86 0.86 97 1013.0
20260505193603 53 213 1.0 2.0 0.13 0.86 0.86 97 1012.9
20260505192704 53 213 0.0 2.0 0.12 0.85 0.85 97 1013.0
20260505191803 53 222 1.0 2.0 0.12 0.84 0.84 97 1012.9
20260505190903 53 227 1.0 2.0 0.13 0.83 0.83 97 1012.8
20260505190003 53 211 2.0 4.0 0.14 0.81 0.81 97 1012.8
20260505185618 53 207 2.0 4.0 0.13 0.78 0.78 97 1012.7
20260505184504 53 197 1.0 4.0 0.10 0.74 0.74 96 1012.5
20260505182703 53 47 0.0 1.0 0.09 0.73 0.73 97 1012.6
20260505181803 53 68 0.0 2.0 0.09 0.72 0.72 97 1012.5
20260505180903 53 166 1.0 3.0 0.07 0.69 0.69 96 1012.6
20260505180218 53 179 2.0 4.0 0.10 0.68 0.69 97 1012.6
20260505175403 53 206 2.0 4.0 0.09 0.65 0.65 97 1012.6
20260505174717 52 212 2.0 4.0 0.09 0.64 0.64 96 1012.5
20260505173603 53 203 2.0 4.0 0.11 0.64 0.64 96 1012.6
20260505172703 53 208 2.0 5.0 0.13 0.64 0.64 96 1012.7
20260505172017 53 218 3.0 5.0 0.13 0.64 0.64 96 1012.5
20260505170904 53 211 2.0 6.0 0.13 0.62 0.62 96 1012.5
20260505170003 53 214 1.0 4.0 0.08 0.57 0.57 96 1012.6
20260505165403 53 232 1.0 3.0 0.07 0.56 0.56 96 1012.5
20260505164717 53 321 1.0 3.0 0.06 0.54 0.54 96 1012.6
20260505163603 53 338 3.0 5.0 0.04 0.53 0.53 96 1012.6
20260505162917 53 339 4.0 7.0 0.03 0.51 0.51 96 1012.7
20260505161803 53 349 4.0 8.0 0.02 0.50 0.50 96 1012.7
20260505160903 53 344 3.0 8.0 0.02 0.50 0.50 96 1012.7
20260505152703 53 339 2.0 6.0 0.02 0.48 0.48 96 1013.0
20260505151803 53 273 2.0 4.0 0.02 0.48 0.48 96 1013.0
20260505150903 53 341 4.0 5.0 0.02 0.48 0.48 96 1012.9
20260505124717 54 46 2.0 4.0 0.02 0.43 0.43 95 1013.6
20260505123816 53 63 1.0 4.0 0.02 0.43 0.43 95 1013.5
20260505122703 53 161 1.0 3.0 0.02 0.43 0.43 95 1013.4
20260505121804 53 168 1.0 3.0 0.02 0.43 0.43 95 1013.5
20260505120904 54 187 1.0 4.0 0.05 0.43 0.43 95 1013.5
20260505120004 54 155 2.0 3.0 0.06 0.43 0.43 95 1013.7
20260505115403 54 74 2.0 3.0 0.06 0.42 0.42 95 1013.6
20260505114717 54 20 2.0 4.0 0.06 0.42 0.42 95 1013.7
20260505113818 54 230 2.0 5.0 0.07 0.42 0.42 95 1013.7
20260505112703 53 218 2.0 4.0 0.07 0.41 0.41 95 1013.7
20260505111804 53 209 1.0 4.0 0.06 0.40 0.40 94 1013.8
20260505110903 53 195 2.0 3.0 0.04 0.38 0.38 94 1013.9
20260505101803 54 246 2.0 9.0 0.06 0.34 0.34 95 1013.7
20260505100903 54 252 3.0 7.0 0.07 0.34 0.34 94 1013.8
20260505100003 54 262 2.0 7.0 0.06 0.32 0.32 94 1013.8
20260505095404 54 269 2.0 7.0 0.06 0.31 0.31 94 1013.9
20260505094503 54 316 2.0 5.0 0.04 0.30 0.30 94 1013.8
20260505093603 54 341 2.0 5.0 0.03 0.29 0.29 93 1013.9
20260505092703 54 342 3.0 4.0 0.03 0.29 0.29 93 1014.1
20260505092018 54 348 3.0 5.0 0.02 0.28 0.28 93 1013.9
20260505090903 54 3 3.0 5.0 0.01 0.27 0.27 94 1013.9
20260505090004 54 317 3.0 7.0 0.02 0.27 0.27 94 1013.9
20260505085403 54 324 2.0 7.0 0.01 0.26 0.26 94 1013.9
20260505084503 54 227 3.0 6.0 0.01 0.26 0.26 95 1013.9
20260505083604 54 241 3.0 7.0 0.01 0.26 0.26 95 1013.6
20260505082703 54 250 3.0 7.0 0.01 0.26 0.26 95 1013.5
20260505081803 54 268 3.0 8.0 0.02 0.26 0.26 95 1013.4
20260505080903 53 313 3.0 8.0 0.02 0.26 0.26 95 1013.3
20260505080004 53 258 4.0 10.0 0.02 0.25 0.25 94 1013.4
20260505075403 53 257 4.0 10.0 0.02 0.25 0.25 94 1013.3
20260505074503 53 258 3.0 8.0 0.04 0.25 0.25 95 1013.2
20260505073603 53 273 3.0 9.0 0.09 0.25 0.25 95 1013.4
20260505072703 53 260 3.0 7.0 0.12 0.25 0.25 95 1013.4
20260505071803 52 229 3.0 9.0 0.13 0.24 0.24 95 1013.3
20260505070904 52 242 3.0 7.0 0.14 0.24 0.24 94 1013.4
20260505070003 52 235 3.0 6.0 0.14 0.24 0.24 94 1013.7
20260505065403 52 223 3.0 6.0 0.14 0.23 0.23 94 1013.5
20260505064503 52 258 3.0 6.0 0.13 0.21 0.21 93 1013.6
20260505063818 52 338 3.0 5.0 0.10 0.17 0.17 93 1013.6
20260505062703 52 322 3.0 5.0 0.08 0.13 0.13 92 1013.4
20260505061803 52 229 5.0 10.0 0.08 0.12 0.12 92 1013.3
20260505060903 52 220 5.0 12.0 0.07 0.10 0.10 92 1013.3
20260505060218 52 219 4.0 12.0 0.07 0.09 0.09 91 1013.2
20260505055617 52 218 4.0 11.0 0.06 0.09 0.09 91 1013.2
20260505054503 52 222 5.0 12.0 0.06 0.08 0.08 90 1013.2
20260505053603 52 222 5.0 14.0 0.06 0.07 0.07 90 1012.9
20260505052703 52 225 4.0 12.0 0.04 0.06 0.06 89 1012.7
20260505051803 52 222 5.0 10.0 0.03 0.04 0.04 88 1012.9
20260505051118 52 220 5.0 11.0 0.02 0.03 0.03 88 1012.9
20260505040903 54 218 1.0 2.0 0.01 0.01 0.01 86 1012.7
20260505040217 54 196 2.0 3.0 0.00 0.00 0.00 84 1012.6
20260505035403 54 198 2.0 4.0 0.00 0.00 0.00 82 1012.7
20260505034718 54 196 1.0 4.0 0.00 0.00 0.00 80 1012.6
20260505033817 55 183 0.0 3.0 0.00 0.00 0.00 79 1012.6
20260505032916 56 0 0.0 0.0 0.00 0.00 0.00 77 1012.6
20260505031803 56 0 0.0 0.0 0.00 0.00 0.00 73 1012.7
20260505030903 57 0 0.0 0.0 0.00 0.00 0.00 72 1012.7
20260505030003 57 0 0.0 0.0 0.00 0.00 0.00 69 1012.7
20260505025403 57 214 1.0 2.0 0.00 0.00 0.00 68 1012.7
20260505024503 57 202 2.0 5.0 0.00 0.00 0.00 69 1012.8
20260505023603 57 215 3.0 6.0 0.00 0.00 0.00 69 1012.9
20260505022703 57 214 2.0 7.0 0.00 0.00 0.00 70 1013.1
20260505021803 57 220 2.0 5.0 0.00 0.00 0.00 71 1013.3
20260505020903 57 225 1.0 5.0 0.00 0.00 0.00 72 1013.4
20260505020003 56 204 1.0 4.0 0.00 0.00 0.00 73 1013.6
20260505015403 56 200 1.0 3.0 0.00 0.00 0.00 74 1013.5
20260505014503 56 202 0.0 3.0 0.00 0.00 0.00 75 1013.6
20260505013603 56 181 1.0 2.0 0.00 0.00 0.00 75 1013.8
20260505012703 56 178 1.0 4.0 0.00 0.00 0.00 75 1013.9
20260505011803 56 182 2.0 5.0 0.00 0.00 0.00 74 1014.0
20260505010903 56 173 1.0 6.0 0.00 0.00 0.00 73 1014.2
20260505010003 57 182 2.0 6.0 0.00 0.00 0.00 73 1014.1
20260505005617 57 184 2.0 6.0 0.00 0.00 0.00 73 1014.3
20260505004503 57 185 2.0 8.0 0.00 0.00 0.00 73 1014.5
20260505003818 57 182 2.0 7.0 0.00 0.00 0.00 74 1014.8
20260505002703 57 172 1.0 6.0 0.00 0.00 0.00 75 1014.9
20260505001803 57 181 1.0 4.0 0.00 0.00 0.00 76 1015.0
20260505000903 57 133 0.0 2.0 0.00 0.00 0.00 75 1015.3
20260505000218 57 0 0.0 0.0 0.00 0.00 0.00 75 1015.1
20260504235403 57 133 1.0 1.0 0.00 0.00 0.00 74 1015.3
20260504234503 57 130 2.0 3.0 0.00 0.00 0.00 74 1015.4
20260504233603 57 128 1.0 3.0 0.00 0.00 0.00 74 1015.6
20260504232703 58 166 0.0 3.0 0.00 0.00 0.00 74 1015.6
20260504231803 58 185 0.0 2.0 0.00 0.00 0.00 74 1015.6
20260504231118 58 0 0.0 0.0 0.00 0.00 0.00 73 1015.7
20260504230003 58 189 1.0 1.0 0.00 0.00 0.00 73 1015.7
20260504225403 58 186 1.0 3.0 0.00 0.00 0.00 73 1015.8
20260504224503 58 186 1.0 4.0 0.00 0.00 0.00 73 1016.0
20260504223603 58 197 2.0 3.0 0.00 0.00 0.00 73 1016.0
20260504222919 57 195 1.0 3.0 0.00 0.00 0.00 73 1016.0
20260504221803 58 185 0.0 2.0 0.00 0.00 0.00 73 1016.2
20260504220903 58 184 0.0 1.0 0.00 0.00 0.00 72 1016.1
20260504220217 58 184 0.0 1.0 0.00 0.00 0.00 71 1016.2
20260504215403 58 184 0.0 1.0 0.00 0.00 0.00 71 1016.2
20260504214717 58 182 0.0 3.0 0.00 0.00 0.00 71 1016.4
20260504213603 58 185 1.0 2.0 0.00 0.00 0.00 71 1016.5
20260504212703 58 184 0.0 2.0 0.00 0.00 0.00 71 1016.5
20260504212018 58 184 0.0 1.0 0.00 0.00 0.00 70 1016.6